Regional Weather Roundup
Issued by NWS Wakefield, VA

Home | Current Version | Previous Version | Graphics & Text | Print | Product List | Glossary On
Versions: 1 2 3 4 5 6 7 8 9 10 11 12 13 14 15 16 17 18 19 20 21 22 23 24 25 26 27 28 29 30 31 32 33 34 35 36 37 38 39 40 41 42 43 44 45 46 47 48 49 50
000
ASUS41 KAKQ 042214
RWRAKQ

REGIONAL WEATHER ROUNDUP
NATIONAL WEATHER SERVICE WAKEFIELD VA
600 PM EDT MON MAY 04 2015

Note: "fair" indicates few or no clouds below 12,000 feet with no
significant weather and/or obstructions to visibility. * = Denotes
station may not report precipitation (e.g., rain,snow,etc.),
thunder or fog.

VAZ042-051-052>054-056-042300-
NORTHERN VIRGINIA

CITY           SKY/WX    TMP DP  RH WIND       PRES   REMARKS
WASH NATIONAL  MOSUNNY   82  53  36 S10       30.15F
DULLES         MOSUNNY   82  49  31 S10       30.15S
FORT BELVOIR   SUNNY     83  49  30 S8        30.15F
QUANTICO       MOSUNNY   75  58  55 S13       30.16F
FREDERICKSBRG* SUNNY     86  51  29 S13       30.15F
STAFFORD*      SUNNY     83  42  23 S12G17    30.20S
WARRENTON      SUNNY     84  54  35 S10G18    30.15S
CULPEPER*      NOT AVBL
MANASSAS*      SUNNY     84  50  30 S12G17    30.15S
LEESBURG*      SUNNY     86  52  30 S16       30.15S
WINCHESTER     CLOUDY    81  39  22 SE5       30.15R
FRONT ROYAL*   FAIR      81  46  30 CALM      30.13S
LURAY*         FAIR      82  48  30 SW5       30.16R
$$

VAZ048-049-060>072-079>083-042300-
CENTRAL AND SOUTH CENTRAL VIRGINIA

CITY           SKY/WX    TMP DP  RH WIND       PRES   REMARKS
RICHMOND       MOSUNNY   83  52  34 S9        30.20S
CHESTERFIELD*  FAIR      81  48  32 S13       30.22R
PETERSBURG*    MOSUNNY   82  47  29 S7        30.21S
HANOVER        MOSUNNY   83  52  34 SW7       30.20F
TAPPAHANNOCK*  SUNNY     82  40  22 S8        30.20S
QUINTON*       FAIR      82  51  34 S5        30.20S
CHARLOTTSVILLE SUNNY     82  49  31 S14G21    30.16S
GORDONSVILLE*  FAIR      82  50  32 SW16      30.15S
ORANGE*        SUNNY     82  50  32 S15       30.17S
LOUISA*        SUNNY     84  52  32 SW9       30.17S
BUMPASS*       FAIR      82  51  34 S7        30.18S
FARMVILLE*     MOSUNNY   83  51  32 S9        30.19R
CREWE*         FAIR      81  49  33 SW9       30.21S
FORT PICKETT*  FAIR      81  51  35 S12       30.22S
CHASE CITY*    FAIR      83  57  41 S7        30.22S
CLARKSVILLE*   FAIR      79  54  41 S9G17     30.22S
SOUTH HILL*    SUNNY     78  54  43 S14       30.28F
LAWRENCEVILLE* FAIR      80  53  39 S8G16     30.22F
EMPORIA*       SUNNY     79  50  36 SE9       30.25S
$$

VAZ088>098-042300-
SOUTHEAST VIRGINIA

CITY           SKY/WX    TMP DP  RH WIND       PRES   REMARKS
NORFOLK        SUNNY     80  46  30 SW13      30.24S
VIRGINIA BEACH MOSUNNY   83  47  28 SW13      30.24S
NORFOLK NAVAL  MOSUNNY   84  48  28 S10       30.25S
WEST POINT*    MOSUNNY   84  43  23 S12       30.22F
SALUDA*        FAIR      79  53  40 S12       30.21S
NEWPORT NEWS   SUNNY     83  51  33 SW13      30.23S
LANGLEY AFB    SUNNY     80  51  36 S16       30.22S
FORT EUSTIS    SUNNY     80  53  39 S8        30.21S
WILLIAMSBURG*  SUNNY     84  54  34 S8        30.23S
HR EXEC AP*    FAIR      81  48  32 S8        30.25S
FRANKLIN*      SUNNY     79  50  35 S9        30.24S
WAKEFIELD      SUNNY     81  49  32 S8        30.23S
$$

VAZ020-022-025-037-045-042300-
WEST CENTRAL AND SOUTHWEST VIRGINIA

CITY           SKY/WX    TMP DP  RH WIND       PRES   REMARKS
STAUNTON*      MOSUNNY   81  45  27 S9        30.19S
WAYNESBORO*    FAIR      78  49  37 S9        30.20R
HOT SPRINGS VA PTSUNNY   71  38  29 W10       30.29S
LYNCHBURG      SUNNY     79  50  36 S13       30.22S
DANVILLE       SUNNY     81  51  35 S8        30.22S
SOUTH BOSTON*  FAIR      80  50  34 SW9       30.22R
MARTINSVILLE   MOSUNNY   82  47  29 SW3       30.25R
ROANOKE        PTSUNNY   77  50  38 S10       30.22S
BLACKSBURG     PTSUNNY   74  49  40 S9        30.28S
DUBLIN*        MOSUNNY   75  51  43 S6        30.26S
MARION*        MOSUNNY   75  44  32 SW9       30.30S
HILLSVILLE*    MOSUNNY   72  51  46 S7        30.30R
RICHLANDS*     FAIR      74  38  26 W10       30.28S
WISE*          SUNNY     75  37  25 W9        30.30S
ABINGDON*      SUNNY     78  42  27 W6        30.27S
$$

MDZ021>025-VAZ099-100-042300-
SOUTHERN MARYLAND AND THE DELMARVA PENINSULA

CITY           SKY/WX    TMP DP  RH WIND       PRES   REMARKS
PATUXENT RIVER MOSUNNY   75  55  49 SE9       30.19S
BAY BRIDGE APT   N/A    N/A N/A N/A S15       30.18S
LEONARDTOWN    SUNNY     79  46  31 SE7       30.21S
DOVER          SUNNY     82  45  26 W8        30.17S
GEORGETOWN     SUNNY     81  36  19 S13       30.21S
EASTON         MOSUNNY   82  50  32 S14       30.23S
CAMBRIDGE      SUNNY     79  50  36 S10       30.21R
SALISBURY      SUNNY     78  47  33 SW13      30.22S
OCEAN CITY     SUNNY     71  53  52 S9        30.24R
WALLOPS ISLAND SUNNY     70  55  59 S15       30.25R
ACCOMACK*      SUNNY     75  50  41 S14       30.25S
$$

NCZ012>017-030>032-042300-
NORTH CENTRAL AND EASTERN NORTH CAROLINA

CITY           SKY/WX    TMP DP  RH WIND       PRES   REMARKS
ROANOKE RAPIDS FAIR      79  50  36 S9        30.24F
RALEIGH        MOSUNNY   80  53  39 S10       30.25S
ELIZABETH CITY SUNNY     77  52  41 SE8       30.27S
AHOSKIE*       SUNNY     78  49  35 S8        30.25F
EDENTON*       MOSUNNY   78  52  40 S8        30.28R
CURRITUCK*     SUNNY     80  42  25 SE6       30.28S
KILL DEVIL HLS SUNNY     75  50  41 S7        30.28S
MANTEO         SUNNY     71  57  61 S14       30.29S
CAPE HATTERAS  SUNNY     70  60  70 S6        30.32F
TARBORO*       FAIR      81  48  32 S6        30.27S
GOLDSBORO      SUNNY     81  49  32 S7        30.24F
WASHINGTON     SUNNY     78  48  34 S7        30.28S
GREENVILLE     SUNNY     81  48  32 W5        30.27F
NEW BERN       SUNNY     77  51  40 S12       30.31S
WILMINGTON     SUNNY     75  48  38 S14       30.31S
$$

VAZ048-042300-
ELSEWHERE

CITY           SKY/WX    TMP DP  RH WIND       PRES   REMARKS
HARRISBURG PA  MOSUNNY   83  45  26 S15G22    30.11S
BALTIMORE      MOSUNNY   81  47  30 S10G16    30.14S
ANNAPOLIS      SUNNY     74  52  46 S14G23    30.16F
ANDREWS AFB    SUNNY     81  48  30 S17       30.16S
PHILADELPHIA   SUNNY     83  39  21 SW13G26   30.15F
HENDERSON NC   SUNNY     78  48  34 S7        30.24S
GREENSBORO     MOSUNNY   79  51  37 SW9       30.24S
ROCKY MOUNT    SUNNY     80  51  36 S7        30.26S
$$

VAZ100-042300-
MARINE

STATION/POSITION TIME  TEMP    WIND        PRES    WAVE   SWELL
                       AIR SEA DIR/SP/G            HT/PER HT/PER
                 (UTC) (F)     (DEG/KT/KT) (MB)    (FT/S) (FT/S)
BRANDYWINE LGT   2100   71 57  180/ 12/ 13 1022.8F
CAPE MAY NJ      2100      61  180/ 13/ 18 1022.6F
LEWES DE         2100   81 55  230/  8/ 12 1022.6F
15NM E FENWICK I 2150   59 54              1023.6F   3/11
OCEAN-CITY-INLET 2112          200/  9/ 11 1023.6F
WACHAPREAGUE VA  2100   71 69  180/ 11/ 14 1024.3R
THOMAS POINT MD  2200   69 60  170/ 19/ 21 1022.0F
GOOSES REEF MD   2200   65 61                N/A     1
COVE POINT MD    2100   65     190/ 16/ 18 1023.3F
SOLOMONS ISLAND  2100      62                N/A
BISHOPS HEAD MD  2100   74 68  180/ 17/ 20 1022.7F
PINEY POINT MD   2100          150/ 12/ 13   N/A
CAMBRIDGE MD     2100      62  170/  7/ 14 1022.6F
LEWISETTA VA     2100   80 68              1022.3F
RAPPAHANNOCK LGT 2100          160/ 15/ 16 1024.4F
YORK RVR RNG VA  2100          150/ 14/ 15 1023.2F
YORKTOWN VA      2100      62  180/ 11/ 13 1023.2F
JAMESTOWN VA     2200   78 65  210/ 10/ 14 1022.4F
DOMINION TERM VA 2100   74     220/ 10/ 12 1024.0F
KIPTOPEKE VA     2100      67  180/ 14/ 16   N/A
CHES BAY BRIDGE  2112          110/  3/  4 1023.8F
CAPE HENRY VA    2100   71     140/ 12/ 17 1023.1F
CHESAPEAKE LGHT  2100   61     170/ 25/ 25 1024.8F
WILLOUBY STN VA  2100   79     200/ 12/ 14 1024.7F
S CRANEY ISL VA  2100          190/  8/ 12 1024.1F
CAPE HENRY BUOY  2128      55                N/A     3/11   2/11
1ST LANDING BUOY 2200      61                N/A     2/ 4
CAPE CHARLES BUO 2126      58                N/A     3/10   2/10
OFFSHORE WE BUOY 2111      53                N/A     3/11   3/11
64NM E OF VA BCH 2150   63 62  190/ 10/ 12 1025.6S   3/10   3/10
DUCK PIER NC     2100      58  140/  9/ 10 1024.6F
44056 DUCK FRF   2111      60                N/A     2/12   2/12
OREGON INLET NC  2100   71 69  180/ 13/ 15 1026.3S
HATTERAS NC      2112          170/  3/  7 1026.4F
DIAMOND SHLS NC  2150   74 78  200/ 12/ 14 1026.7F   4/10   3/10
CAPE LOOKOUT NC  2200   72     170/  5/  6 1026.6F
$$


USA.gov is the U.S. government's official web portal to all federal, state and local government web resources and services.